View from above orbital plane
|
View from above satellite
|
Ground track
|
The orbit data is extracted from the following two-line orbital elements,
1 22237U 92080B 13144.32550112 .00000395 00000-0 51991-4 0 297
2 22237 082.5141 058.3602 0020245 023.3747 124.9973 14.77578747104100
| Epoch (UTC): | 24 May 2013 07:48:43 |
| Eccentricity: | 0.0020245 |
| inclination: | 82.5141° |
| perigee height: | 623 km |
| apogee height: | 651 km |
| right ascension of ascending node: | 58.3602° |
| argument of perigee: | 23.3747° |
| revolutions per day: | 14.77578747 |
| mean anomaly at epoch: | 124.9973° |
| orbit number at epoch: | 10410 |
The dashed part of the orbit path shows where the satellite is in the earth's shadow,
|
|